Hauptseite
METAR-TAF:

METAR-TAF

Flughäfen :

Elsenborn

Bütgenbach, Belgien

Breite: 50-28N, Länge: 006-11E, Höhe: 564 m

Beobachtung

Neuester Wetterbericht von vor 30 Minuten, um 03:55 UTC
Wind 1 kt aus unterschiedlichen Richtungen
Temperatur -14°C
Luftfeuchtigkeit 85%
Luftdruck 1019 hPa
Sichtweite 10 km oder mehr

METAR: EBLB 210355Z AUTO VRB01KT 9999 NCD M14/M16 Q1019 BLU

Zeit: 05:25 (04:25 UTC)


TAF: fehlend

Wetterbeobachtungen und Prognosen von mehr als 4000 Flughäfen (METAR und TAF Bericht).

Die verfügbaren Stationen werden durch gelbe und rote Markierungen auf der Karte dargestellt.

Führen Sie die Maus auf sie, um den Namen der Station zu sehen.

Darauf klicken, um die Beobachtung von Wetterbeobachtungen und Prognosen zu sehen.

Um die Karte zu ändern : klicken Sie auf den grünen Tasten mit einem schwarzen Kreuz Zum Vergrößern, auf den grünen Button mit einem Gedankenstrich zu verkleinern, oder auf die grünen Pfeile für benachbarte Karten.


METAR-TAF: